Showing default

WEINA 1B, 43279

Orbit data source: Space-Track

WEINA 1B, 43279 is a payload satellite owned by Weina (CN) in LEO that was launched on Tue, 10 Apr 2018 UTC via a CHANG ZHENG 4C launch vehicle from the Jiuquan Satellite Launch Center, China (JSC). Payload-class satellites include a variety of spacecraft equipped with specific instruments for various scientific and technological missions. These include communications satellites like Starlink; space stations such as the ISS; scientific satellites like the Hubble; Earth observation satellites from companies like Planet Labs, Umbra, and HawkEye 360; GPS; miniature CubeSats for education and research; and military/defense satellites.

Loading next visibility...
Identifier
43279, 2018-034E
Orbit
LEO
Last TLE update
7 hours ago
Origin
Manufacturer
SECM?
Mission
Operational Defense Technology
Bus & Motor
Unknown
Mass
~10 kg wet, ~10 kg dry
Launch date (UTC)
2018-04-10 (7 years ago)
Launch vehicle
CHANG ZHENG 4C
Launch site
Jiuquan Satellite Launch Center, China (JSC)
Object type
Payload
Rocket body
Debris
Shape & HBR
Box, 0.3 m
Radar Cross Section
0.035 m², Medium (>0.1 m² and < 1m²)

Expand to show TLE details & history

TLE from 7 hours ago
0 WEINA 1B
1 43279U 18034E   25128.94616162 -.00000035  00000-0  78487-4 0  9991
2 43279  63.3991  51.5611 0239335   6.7013 353.7118 13.45330877347822
Epoch: 2025-05-08T22:42Z
Definitive object data (Epoch: 2025-05-08T22:42:28.363Z)
Latitude
-0.00005°
Longitude
-156.06647°
Altitude
913.639 km
Speed
7.483 km/s
True Right ascension
03h 26m 14s
True Declination
0° 00' 00"
Sunlit
Object was in daylight at TLE epoch
Visualization TLE readout
Latitude
3.2684°
Longitude
-155.20243°
Altitude
912.374 km
Speed
7.484 km/s
Apparent Right ascension
02h 53m 52s
Apparent Declination
-17° 00' 37"
Sunlit
Object is in daylight
Visualization observer readout
Local Sidereal Time
14:00:23
Azimuth
329.306° NNW
Elevation
-64.324°
Doppler factor
1
Orbital elements
Apogee altitude
1,267.014 km
Perigee altitude
909.617 km
Semi-major axis
7,466.452 km
Eccentricity
0.0239335
Inclination
63.3991°
RAAN
51.5611°
Arg. of periapsis
6.7013°
True anomaly
353.40221°
Mean anomaly
353.7118°
Eccentric anomaly
353.55794°
Mean motion
3.36412 °/min
BSTAR
0.000078487
Orbital period
107.01 mins
Loading maneuver chart data...
Loading SW <> Apogee altitude chart data...
Loading historical data...
Loading historical data...
Loading historical data...
Loading historical data...
Loading historical data...
Loading historical data...
Loading historical data...

WEINA 1B Visibility forecast

Observer location: undefined°, undefined°

Span
Click to sort rows by Start time (UTC) header in descending order
Start Az.
Max El. time (UTC)
Max El. Az.
Max El.
End time (UTC)
End Az.
13 mins2025-05-09 06:24:38.991Z312.568° NW2025-05-09 06:31:38.991Z239.134° WSW33.944°2025-05-09 06:37:38.991Z180.523° SSW
10 mins2025-05-09 20:14:38.991Z193.901° SSW2025-05-09 20:19:38.991Z98.024° ESE40.59°2025-05-09 20:24:38.991Z41.866° NE
8 mins2025-05-09 22:06:38.991Z274.009° WNW2025-05-09 22:10:38.991Z327.663° NNW24.749°2025-05-09 22:14:38.991Z11.711° NNE
11 mins2025-05-10 03:45:38.991Z347.494° N2025-05-10 03:50:38.991Z41.006° NE26.86°2025-05-10 03:56:38.991Z98.618° ESE
13 mins2025-05-10 05:35:38.991Z320.4° NNW2025-05-10 05:41:38.991Z250.464° W43.198°2025-05-10 05:48:38.991Z159.604° S
|